NAVSTAR 81 (USA 319) (48859 NORAD) Tracking and Keplerian Element Data

This shows tracking and keplerian element data for the satellite.

Feedback or suggestion? Click here.




ElementValue
Catalog48859
NameNAVSTAR 81 (USA 319)
Epoch Orbit84
Epoch Day203.81944444
Epoch Year2021
RAAN44.3506
Inclination55.0008
Eccentricity0.0002766
Argument of Perigee100.773
Mean Anonmoly51.5181
Mean Motion2.00565437
Decay Rate-6.6E-07
L11 48859U 21054A 21203.81944444 -.00000066 00000-0 00000-0 0 9995
L22 48859 55.0008 44.3506 0002766 100.7730 51.5181 2.00565437 840

Live tracking and technical data element details for NAVSTAR 81 (USA 319) (NORAD 48859). NAVSTAR 81 (USA 319) can be tracked NOW for your location showing map with azimuth and elevation plus other details from your city location.

Track the satellite on the map from your city or location and see movement details for azimuth, elevation, latitude, longitude, range, height, and movement on the map or in text.







IsCatalogInMostPopularTable: catalog: 48859, numindb: 8
Update: records affected: 1



GetName: 48859 NAVSTAR 81 (USA 319)

Hit Count: updated at: Tue, 03 Aug 2021 23:32:06 GMT